EW9902 Weather Reports


Display with metric or nautical units.
time (UTC)temp
F
wind
direction
speed
MPH
gust
MPH
rain 1hr
in
rain 24hr
in
rain mn
in
humidity
%
barometer
mb
20260505093051 68 204 0.0 1.0 0.00 0.00 0.00 92 1006.7
20260505091546 68 169 0.0 1.0 0.00 0.00 0.00 92 1006.8
20260505090043 68 180 0.0 1.0 0.00 0.00 0.00 91 1007.1
20260505084547 68 159 0.0 1.0 0.00 0.00 0.00 91 1007.2
20260505083049 68 175 0.0 1.0 0.00 0.00 0.00 91 1007.3
20260505081546 68 184 0.0 1.0 0.00 0.00 0.00 90 1007.6
20260505080036 68 178 0.0 1.0 0.00 0.00 0.00 90 1007.7
20260505074536 68 192 0.0 1.0 0.00 0.00 0.00 89 1007.8
20260505073037 68 171 0.0 1.0 0.00 0.00 0.00 89 1007.9
20260505071534 68 163 0.0 5.0 0.00 0.00 0.00 89 1008.0
20260505070041 68 158 0.0 2.0 0.00 0.00 0.00 89 1008.2
20260505064530 68 193 0.0 2.0 0.00 0.00 0.00 89 1008.4
20260505063033 68 195 0.0 4.0 0.00 0.00 0.00 89 1008.5
20260505061531 68 196 0.0 0.0 0.00 0.00 0.00 89 1008.7
20260505060034 68 178 0.0 1.0 0.00 0.00 0.00 88 1008.6
20260505054527 68 178 0.0 1.0 0.00 0.00 0.00 88 1008.4
20260505053026 68 166 0.0 1.0 0.00 0.00 0.00 87 1008.5
20260505051524 69 171 6.0 11.0 0.00 0.00 0.00 87 1008.4
20260505041519 70 173 6.0 10.0 0.00 0.00 0.00 85 1008.7
20260505040017 70 159 5.0 12.0 0.00 0.00 0.00 84 1008.7
20260505034523 70 161 5.0 9.0 0.00 0.00 0.00 83 1008.7
20260505033017 71 152 6.0 11.0 0.00 0.00 0.00 82 1008.8
20260505031517 71 158 3.0 9.0 0.00 0.00 0.00 81 1008.7
20260505030016 72 167 5.0 11.0 0.00 0.00 0.00 80 1008.2
20260505024515 72 168 5.0 9.0 0.00 0.00 0.00 78 1008.6
20260505023016 73 169 4.0 11.0 0.00 0.00 0.00 77 1008.5
20260505021515 73 157 5.0 9.0 0.00 0.00 0.00 75 1008.5
20260505020014 74 183 7.0 11.0 0.00 0.00 0.00 75 1008.3
20260505014513 74 196 7.0 14.0 0.00 0.00 0.00 75 1008.3
20260505013012 74 176 5.0 9.0 0.00 0.00 0.00 74 1008.0
20260505011522 74 175 5.0 10.0 0.00 0.00 0.00 73 1007.9
20260505010015 75 166 5.0 9.0 0.00 0.00 0.00 73 1007.8
20260505004511 76 190 5.0 9.0 0.00 0.00 0.00 72 1007.9
20260505003009 77 166 5.0 10.0 0.00 0.00 0.00 70 1008.0
20260505001510 78 203 7.0 14.0 0.00 0.00 0.00 69 1008.3
20260505000006 78 166 5.0 11.0 0.00 0.00 0.00 69 1008.4
20260504234506 78 171 8.0 12.0 0.00 0.00 0.00 68 1008.4
20260504233004 78 181 7.0 16.0 0.00 0.00 0.00 66 1008.7
20260504231505 78 180 8.0 12.0 0.00 0.00 0.00 65 1008.6
20260504230002 79 149 8.0 16.0 0.00 0.00 0.00 64 1008.9
20260504224600 79 186 4.0 15.0 0.00 0.00 0.00 64 1009.1
20260504223100 80 185 8.0 16.0 0.00 0.00 0.00 62 1008.9
20260504221559 80 192 10.0 15.0 0.00 0.00 0.00 60 1009.2
20260504220056 81 199 9.0 19.0 0.00 0.00 0.00 59 1009.3
20260504214600 81 223 7.0 19.0 0.00 0.00 0.00 58 1009.6
20260504213053 82 176 10.0 18.0 0.00 0.00 0.00 60 1009.8
20260504211549 81 219 10.0 19.0 0.00 0.00 0.00 59 1010.0
20260504210047 81 157 11.0 18.0 0.00 0.00 0.00 57 1010.5
20260504204645 81 201 11.0 18.0 0.00 0.00 0.00 58 1010.6
20260504203049 81 206 10.0 15.0 0.00 0.00 0.00 60 1010.9
20260504201544 81 198 9.0 19.0 0.00 0.00 0.00 58 1011.1
20260504200039 81 186 12.0 19.0 0.00 0.00 0.00 56 1011.5
20260504194537 80 217 7.0 16.0 0.00 0.00 0.00 57 1011.8
20260504193034 80 178 10.0 16.0 0.00 0.00 0.00 59 1011.8
20260504191531 80 214 9.0 19.0 0.00 0.00 0.00 60 1012.1
20260504190028 79 190 8.0 20.0 0.00 0.00 0.00 60 1012.4
20260504184526 79 214 11.0 20.0 0.00 0.00 0.00 59 1012.5
20260504183024 78 173 8.0 16.0 0.00 0.00 0.00 62 1012.7
20260504181520 78 213 14.0 21.0 0.00 0.00 0.00 59 1013.0
20260504180019 78 161 12.0 18.0 0.00 0.00 0.00 57 1013.2
20260504174515 77 215 11.0 19.0 0.00 0.00 0.00 56 1013.4
20260504173011 77 157 8.0 19.0 0.00 0.00 0.00 58 1013.6
20260504171514 77 181 9.0 18.0 0.00 0.00 0.00 59 1014.0
20260504110145 55 169 0.0 0.0 0.00 0.00 0.00 90 1014.4